Weather History for Dayton, OH

Change the Weather History Date:

Thursday, July 25, 2013

  Actual Average Record
Temperature  
Mean Temperature 65 °F 74 °F  
Max Temperature 77 °F 84 °F 104 °F (1934)
Min Temperature 52 °F 64 °F 50 °F (1906)
Degree Days  
Heating Degree Days 0 0  
Month to date heating degree days 0 0  
Since 1 June heating degree days 11 22  
Since 1 July heating degree days 0 0  
Cooling Degree Days 0 9  
Month to date cooling degree days 272 225  
Year to date cooling degree days 611 485  
Since 1 June cooling degree days 480 415  
Growing Degree Days 16 (Base 50)    
Moisture  
Dew Point 53 °F    
Average Humidity 68    
Maximum Humidity 93    
Minimum Humidity 43    
Precipitation  
Precipitation 0.00 in 0.13 in 1.56 in (1908)
Month to date precipitation 2.32 3.43  
Year to date precipitation 19.74 24.64  
Snow  
Snow 0.00 in 0.00 in 0.00 in ()
Month to date snowfall 0.0 0.0  
Since 1 June snowfall 0.0 0.0  
Since 1 July snowfall 0.0 0.0  
Snow Depth 0.00 in    
Sea Level Pressure  
Sea Level Pressure 30.08 in    
Wind  
Wind Speed 6 mph (NNE)    
Max Wind Speed 13 mph    
Max Gust Speed 16 mph    
Visibility 10 miles    
Events      
T = Trace of Precipitation, MM = Missing Value Source: NWS Daily Summary

Daily Weather History Graph

Daily Weather History Graph

Search for Another Location

Airport:

Trip Planner

Search our weather history database for the weather conditions in past years. The results will help you decide how hot, cold, wet, or windy it might be!

Date:

Astronomy

Jul. 25, 2013 Rise Set
Actual Time 6:29 AM EDT 8:56 PM EDT
Civil Twilight 5:58 AM EDT 9:27 PM EDT
Nautical Twilight 5:20 AM EDT 10:05 PM EDT
Astronomical Twilight 4:37 AM EDT 10:48 PM EDT
Moon 10:37 PM EDT (7/25) 9:57 AM EDT (7/25)
Length of Visible Light 15h 29m
Length of Day
14h 27m
Waning Gibbous, 88% of the Moon is Illuminated
Jul 25
Waning Gibbous
Jul 29
Last Quarter
Aug 6
New
Aug 14
First Quarter
Aug 20
Full

Hourly Weather History & Observations

Time (EDT) Temp. Dew Point Humidity Pressure Visibility Wind Dir Wind Speed Gust Speed Precip Events Conditions
12:56 AM 57.9 °F 53.1 °F 84% 30.04 in 10.0 mi NNE 4.6 mph - N/A   Clear
1:56 AM 57.0 °F 52.0 °F 83% 30.04 in 10.0 mi NE 4.6 mph - N/A   Clear
2:56 AM 57.0 °F 52.0 °F 83% 30.04 in 10.0 mi NE 3.5 mph - N/A   Clear
3:56 AM 54.0 °F 51.1 °F 90% 30.04 in 10.0 mi North 3.5 mph - N/A   Clear
4:56 AM 54.0 °F 51.1 °F 90% 30.04 in 10.0 mi NNE 3.5 mph - N/A   Clear
5:56 AM 55.0 °F 51.1 °F 86% 30.05 in 10.0 mi North 6.9 mph - N/A   Clear
6:56 AM 54.0 °F 52.0 °F 93% 30.06 in 9.0 mi North 4.6 mph - N/A   Clear
7:56 AM 57.9 °F 53.1 °F 84% 30.09 in 10.0 mi NNE 4.6 mph - N/A   Clear
8:56 AM 62.1 °F 54.0 °F 75% 30.09 in 10.0 mi ENE 6.9 mph - N/A   Clear
9:56 AM 66.0 °F 55.0 °F 68% 30.09 in 10.0 mi East 8.1 mph - N/A   Clear
10:56 AM 69.1 °F 53.1 °F 57% 30.10 in 10.0 mi ENE 8.1 mph - N/A   Partly Cloudy
11:56 AM 71.1 °F 52.0 °F 51% 30.11 in 10.0 mi NE 10.4 mph - N/A   Scattered Clouds
12:56 PM 72.0 °F 52.0 °F 49% 30.11 in 10.0 mi Calm Calm - N/A   Scattered Clouds
1:56 PM 73.9 °F 53.1 °F 48% 30.09 in 10.0 mi NNE 6.9 mph - N/A   Scattered Clouds
2:56 PM 75.0 °F 52.0 °F 44% 30.09 in 10.0 mi NNE 8.1 mph - N/A   Partly Cloudy
3:56 PM 75.9 °F 53.1 °F 45% 30.09 in 10.0 mi North 9.2 mph - N/A   Scattered Clouds
4:56 PM 75.9 °F 53.1 °F 45% 30.10 in 10.0 mi NNE 6.9 mph - N/A   Scattered Clouds
5:56 PM 75.9 °F 53.1 °F 45% 30.09 in 10.0 mi ENE 10.4 mph - N/A   Scattered Clouds
6:56 PM 75.9 °F 53.1 °F 45% 30.09 in 10.0 mi NNE 8.1 mph - N/A   Partly Cloudy
7:56 PM 73.0 °F 54.0 °F 51% 30.09 in 10.0 mi NE 6.9 mph - N/A   Partly Cloudy
8:56 PM 70.0 °F 55.0 °F 59% 30.09 in 10.0 mi North 4.6 mph - N/A   Partly Cloudy
9:56 PM 66.0 °F 55.0 °F 68% 30.10 in 10.0 mi NE 3.5 mph - N/A   Scattered Clouds
10:56 PM 66.0 °F 55.0 °F 68% 30.10 in 10.0 mi NNE 3.5 mph - N/A   Partly Cloudy
11:56 PM 64.0 °F 55.0 °F 73% 30.11 in 10.0 mi Calm Calm - N/A   Clear